Location: Pedimozza
(42.0500°N, 9.3500°E)
Time: 03:52:46
(UTC+00:00)

USA 234 - Pass Details

Date: 19 August 2019
Orbit: 1098 x 1109 km, 123.0° (Epoch: 16 September)

Event Time Altitude Azimuth Distance (km) Brightness Sun altitude
Exits shadow 19:10:44 10° 138° (SE) 2,981 4.9 -9.9°
Reaches altitude 10° 19:10:49 10° 138° (SE) 2,952 4.9 -9.9°
Maximum altitude 19:17:20 76° 223° (SW) 1,139 3.4 -11.0°
Drops below altitude 10° 19:23:55 10° 310° (NW) 2,972 7.0 -12.1°
Sets 19:26:25 0° 312° (NW) 3,934 8.0 -12.5°
